Year,Month,Day,Hour,Minute,Value (Times are PST for temperature in C)
2014,04,19,00,00,7.10
2014,04,19,00,01,7.00
2014,04,19,00,03,7.00
2014,04,19,00,04,7.00
2014,04,19,00,05,7.00
2014,04,19,00,06,7.00
2014,04,19,00,07,7.00
2014,04,19,00,08,6.90
2014,04,19,00,09,6.90
2014,04,19,00,10,6.90
2014,04,19,00,12,6.90
2014,04,19,00,13,6.90
2014,04,19,00,14,6.80
2014,04,19,00,16,6.80
2014,04,19,00,17,6.80
2014,04,19,00,19,6.80
2014,04,19,00,20,6.80
2014,04,19,00,21,6.80
2014,04,19,00,22,6.70
2014,04,19,00,23,6.70
2014,04,19,00,24,6.70
2014,04,19,00,25,6.70
2014,04,19,00,26,6.70
2014,04,19,00,27,6.70
2014,04,19,00,28,6.60
2014,04,19,00,29,6.60
2014,04,19,00,30,6.60
2014,04,19,00,31,6.60
2014,04,19,00,32,6.60
2014,04,19,00,34,6.60
2014,04,19,00,35,6.60
2014,04,19,00,36,6.50
2014,04,19,00,37,6.50
2014,04,19,00,38,6.50
2014,04,19,00,39,6.50
2014,04,19,00,40,6.50
2014,04,19,00,41,6.50
2014,04,19,00,42,6.50
2014,04,19,00,43,6.40
2014,04,19,00,44,6.40
2014,04,19,00,45,6.40
2014,04,19,00,46,6.40
2014,04,19,00,47,6.40
2014,04,19,00,48,6.40
2014,04,19,00,49,6.40
2014,04,19,00,50,6.40
2014,04,19,00,51,6.40
2014,04,19,00,52,6.40
2014,04,19,00,53,6.40
2014,04,19,00,55,6.40
2014,04,19,00,56,6.40
2014,04,19,00,57,6.40
2014,04,19,00,59,6.40
2014,04,19,01,00,6.40
2014,04,19,01,02,6.40
2014,04,19,01,04,6.40
2014,04,19,01,05,6.40
2014,04,19,01,06,6.40
2014,04,19,01,07,6.40
2014,04,19,01,08,6.40
2014,04,19,01,09,6.40
2014,04,19,01,10,6.40
2014,04,19,01,11,6.40
2014,04,19,01,12,6.40
2014,04,19,01,13,6.40
2014,04,19,01,15,6.40
2014,04,19,01,16,6.40
2014,04,19,01,17,6.40
2014,04,19,01,19,6.40
2014,04,19,01,20,6.40
2014,04,19,01,21,6.40
2014,04,19,01,22,6.40
2014,04,19,01,23,6.40
2014,04,19,01,24,6.40
2014,04,19,01,26,6.40
2014,04,19,01,27,6.40
2014,04,19,01,29,6.40
2014,04,19,01,30,6.40
2014,04,19,01,31,6.40
2014,04,19,01,32,6.40
2014,04,19,01,33,6.40
2014,04,19,01,34,6.40
2014,04,19,01,35,6.40
2014,04,19,01,36,6.40
2014,04,19,01,37,6.40
2014,04,19,01,38,6.40
2014,04,19,01,40,6.30
2014,04,19,01,41,6.30
2014,04,19,01,43,6.30
2014,04,19,01,44,6.30
2014,04,19,01,45,6.30
2014,04,19,01,46,6.30
2014,04,19,01,48,6.30
2014,04,19,01,49,6.30
2014,04,19,01,50,6.30
2014,04,19,01,51,6.40
2014,04,19,01,52,6.40
2014,04,19,01,53,6.40
2014,04,19,01,54,6.40
2014,04,19,01,55,6.40
2014,04,19,01,57,6.40
2014,04,19,01,58,6.40
2014,04,19,01,59,6.40
2014,04,19,02,00,6.40
2014,04,19,02,01,6.40
2014,04,19,02,03,6.40
2014,04,19,02,04,6.40
2014,04,19,02,05,6.40
2014,04,19,02,06,6.40
2014,04,19,02,07,6.40
2014,04,19,02,08,6.40
2014,04,19,02,09,6.40
2014,04,19,02,10,6.40
2014,04,19,02,11,6.40
2014,04,19,02,13,6.40
2014,04,19,02,14,6.40
2014,04,19,02,15,6.40
2014,04,19,02,17,6.40
2014,04,19,02,19,6.30
2014,04,19,02,20,6.30
2014,04,19,02,22,6.30
2014,04,19,02,23,6.30
2014,04,19,02,24,6.30
2014,04,19,02,25,6.30
2014,04,19,02,26,6.30
2014,04,19,02,27,6.30
2014,04,19,02,28,6.30
2014,04,19,02,29,6.30
2014,04,19,02,30,6.30
2014,04,19,02,31,6.30
2014,04,19,02,32,6.30
2014,04,19,02,33,6.30
2014,04,19,02,34,6.30
2014,04,19,02,35,6.30
2014,04,19,02,36,6.30
2014,04,19,02,37,6.20
2014,04,19,02,38,6.20
2014,04,19,02,39,6.20
2014,04,19,02,40,6.20
2014,04,19,02,41,6.20
2014,04,19,02,42,6.20
2014,04,19,02,44,6.20
2014,04,19,02,45,6.20
2014,04,19,02,46,6.20
2014,04,19,02,47,6.20
2014,04,19,02,48,6.20
2014,04,19,02,49,6.20
2014,04,19,02,50,6.20
2014,04,19,02,51,6.20
2014,04,19,02,52,6.20
2014,04,19,02,53,6.20
2014,04,19,02,54,6.20
2014,04,19,02,55,6.20
2014,04,19,02,56,6.20
2014,04,19,02,57,6.20
2014,04,19,02,58,6.20
2014,04,19,03,00,6.20
2014,04,19,03,02,6.20
2014,04,19,03,04,6.20
2014,04,19,03,05,6.20
2014,04,19,03,06,6.20
2014,04,19,03,07,6.30
2014,04,19,03,08,6.30
2014,04,19,03,09,6.30
2014,04,19,03,10,6.30
2014,04,19,03,11,6.30
2014,04,19,03,12,6.30
2014,04,19,03,14,6.30
2014,04,19,03,16,6.30
2014,04,19,03,17,6.30
2014,04,19,03,18,6.30
2014,04,19,03,20,6.30
2014,04,19,03,21,6.30
2014,04,19,03,22,6.30
2014,04,19,03,23,6.30
2014,04,19,03,24,6.30
2014,04,19,03,25,6.30
2014,04,19,03,26,6.30
2014,04,19,03,27,6.30
2014,04,19,03,29,6.30
2014,04,19,03,30,6.30
2014,04,19,03,31,6.30
2014,04,19,03,33,6.30
2014,04,19,03,34,6.30
2014,04,19,03,35,6.30
2014,04,19,03,36,6.40
2014,04,19,03,38,6.40
2014,04,19,03,39,6.40
2014,04,19,03,40,6.40
2014,04,19,03,41,6.40
2014,04,19,03,42,6.40
2014,04,19,03,43,6.40
2014,04,19,03,45,6.40
2014,04,19,03,46,6.40
2014,04,19,03,47,6.40
2014,04,19,03,48,6.40
2014,04,19,03,49,6.40
2014,04,19,03,50,6.40
2014,04,19,03,52,6.40
2014,04,19,03,53,6.40
2014,04,19,03,55,6.40
2014,04,19,03,56,6.40
2014,04,19,03,57,6.40
2014,04,19,03,58,6.40
2014,04,19,03,59,6.40
2014,04,19,04,00,6.40
2014,04,19,04,01,6.40
2014,04,19,04,02,6.40
2014,04,19,04,04,6.40
2014,04,19,04,05,6.40
2014,04,19,04,06,6.30
2014,04,19,04,07,6.40
2014,04,19,04,08,6.30
2014,04,19,04,10,6.40
2014,04,19,04,11,6.40
2014,04,19,04,12,6.30
2014,04,19,04,13,6.40
2014,04,19,04,15,6.30
2014,04,19,04,16,6.30
2014,04,19,04,18,6.40
2014,04,19,04,19,6.30
2014,04,19,04,20,6.40
2014,04,19,04,21,6.40
2014,04,19,04,22,6.40
2014,04,19,04,23,6.40
2014,04,19,04,24,6.40
2014,04,19,04,26,6.40
2014,04,19,04,27,6.40
2014,04,19,04,28,6.40
2014,04,19,04,29,6.40
2014,04,19,04,30,6.40
2014,04,19,04,31,6.40
2014,04,19,04,32,6.40
2014,04,19,04,33,6.40
2014,04,19,04,35,6.40
2014,04,19,04,36,6.40
2014,04,19,04,37,6.40
2014,04,19,04,38,6.40
2014,04,19,04,40,6.40
2014,04,19,04,41,6.40
2014,04,19,04,42,6.40
2014,04,19,04,43,6.40
2014,04,19,04,44,6.40
2014,04,19,04,45,6.40
2014,04,19,04,46,6.40
2014,04,19,04,48,6.40
2014,04,19,04,49,6.40
2014,04,19,04,50,6.40
2014,04,19,04,51,6.40
2014,04,19,04,52,6.50
2014,04,19,04,53,6.50
2014,04,19,04,54,6.50
2014,04,19,04,56,6.50
2014,04,19,04,58,6.50
2014,04,19,04,59,6.50
2014,04,19,05,00,6.50
2014,04,19,05,02,6.50
2014,04,19,05,03,6.50
2014,04,19,05,04,6.50
2014,04,19,05,05,6.50
2014,04,19,05,06,6.50
2014,04,19,05,07,6.50
2014,04,19,05,08,6.50
2014,04,19,05,09,6.50
2014,04,19,05,10,6.40
2014,04,19,05,11,6.50
2014,04,19,05,12,6.50
2014,04,19,05,13,6.40
2014,04,19,05,14,6.50
2014,04,19,05,15,6.40
2014,04,19,05,16,6.40
2014,04,19,05,17,6.40
2014,04,19,05,19,6.40
2014,04,19,05,20,6.40
2014,04,19,05,21,6.40
2014,04,19,05,22,6.40
2014,04,19,05,23,6.40
2014,04,19,05,24,6.40
2014,04,19,05,25,6.40
2014,04,19,05,26,6.40
2014,04,19,05,27,6.40
2014,04,19,05,28,6.40
2014,04,19,05,29,6.40
2014,04,19,05,31,6.40
2014,04,19,05,32,6.40
2014,04,19,05,33,6.40
2014,04,19,05,34,6.40
2014,04,19,05,36,6.40
2014,04,19,05,37,6.40
2014,04,19,05,38,6.40
2014,04,19,05,40,6.40
2014,04,19,05,42,6.40
2014,04,19,05,43,6.40
2014,04,19,05,44,6.40
2014,04,19,05,46,6.40
2014,04,19,05,47,6.40
2014,04,19,05,48,6.40
2014,04,19,05,49,6.40
2014,04,19,05,50,6.40
2014,04,19,05,52,6.40
2014,04,19,05,53,6.40
2014,04,19,05,55,6.40
2014,04,19,05,56,6.40
2014,04,19,05,58,6.40
2014,04,19,05,59,6.40
2014,04,19,06,00,6.40
2014,04,19,06,01,6.40
2014,04,19,06,03,6.40
2014,04,19,06,04,6.40
2014,04,19,06,05,6.40
2014,04,19,06,06,6.40
2014,04,19,06,07,6.40
2014,04,19,06,08,6.40
2014,04,19,06,09,6.40
2014,04,19,06,10,6.40
2014,04,19,06,12,6.40
2014,04,19,06,13,6.40
2014,04,19,06,14,6.40
2014,04,19,06,16,6.40
2014,04,19,06,17,6.40
2014,04,19,06,18,6.40
2014,04,19,06,19,6.40
2014,04,19,06,20,6.40
2014,04,19,06,21,6.40
2014,04,19,06,22,6.40
2014,04,19,06,23,6.40
2014,04,19,06,24,6.40
2014,04,19,06,26,6.40
2014,04,19,06,27,6.40
2014,04,19,06,29,6.40
2014,04,19,06,30,6.40
2014,04,19,06,31,6.40
2014,04,19,06,32,6.40
2014,04,19,06,33,6.40
2014,04,19,06,34,6.40
2014,04,19,06,35,6.40
2014,04,19,06,37,6.40
2014,04,19,06,38,6.50
2014,04,19,06,39,6.50
2014,04,19,06,41,6.60
2014,04,19,06,42,6.60
2014,04,19,06,43,6.60
2014,04,19,06,44,6.60
2014,04,19,06,45,6.70
2014,04,19,06,46,6.70
2014,04,19,06,47,6.70
2014,04,19,06,48,6.70
2014,04,19,06,50,6.80
2014,04,19,06,51,6.80
2014,04,19,06,52,6.80
2014,04,19,06,53,6.90
2014,04,19,06,54,6.90
2014,04,19,06,55,6.90
2014,04,19,06,56,6.90
2014,04,19,06,58,7.00
2014,04,19,06,59,7.00
2014,04,19,07,00,6.90
2014,04,19,07,01,6.90
2014,04,19,07,02,6.90
2014,04,19,07,03,6.80
2014,04,19,07,04,6.80
2014,04,19,07,05,6.80
2014,04,19,07,06,6.70
2014,04,19,07,07,6.70
2014,04,19,07,08,6.70
2014,04,19,07,09,6.70
2014,04,19,07,10,6.60
2014,04,19,07,11,6.60
2014,04,19,07,12,6.60
2014,04,19,07,14,6.50
2014,04,19,07,15,6.40
2014,04,19,07,16,6.40
2014,04,19,07,17,6.40
2014,04,19,07,19,6.40
2014,04,19,07,20,6.40
2014,04,19,07,21,6.30
2014,04,19,07,22,6.30
2014,04,19,07,23,6.30
2014,04,19,07,24,6.30
2014,04,19,07,26,6.30
2014,04,19,07,27,6.30
2014,04,19,07,28,6.30
2014,04,19,07,30,6.30
2014,04,19,07,32,6.30
2014,04,19,07,34,6.30
2014,04,19,07,35,6.30
2014,04,19,07,36,6.30
2014,04,19,07,37,6.30
2014,04,19,07,38,6.40
2014,04,19,07,39,6.40
2014,04,19,07,41,6.40
2014,04,19,07,42,6.40
2014,04,19,07,44,6.40
2014,04,19,07,46,6.40
2014,04,19,07,47,6.40
2014,04,19,07,49,6.40
2014,04,19,07,50,6.40
2014,04,19,07,52,6.40
2014,04,19,07,53,6.50
2014,04,19,07,54,6.50
2014,04,19,07,55,6.50
2014,04,19,07,57,6.60
2014,04,19,07,59,6.60
2014,04,19,08,00,6.60
2014,04,19,08,01,6.60
2014,04,19,08,03,6.60
2014,04,19,08,04,6.60
2014,04,19,08,05,6.60
2014,04,19,08,06,6.70
2014,04,19,08,07,6.70
2014,04,19,08,08,6.70
2014,04,19,08,09,6.70
2014,04,19,08,10,6.70
2014,04,19,08,11,6.70
2014,04,19,08,12,6.70
2014,04,19,08,13,6.70
2014,04,19,08,15,6.70
2014,04,19,08,17,6.80
2014,04,19,08,19,6.80
2014,04,19,08,20,6.80
2014,04,19,08,21,6.80
2014,04,19,08,23,6.80
2014,04,19,08,25,6.90
2014,04,19,08,26,6.90
2014,04,19,08,27,6.90
2014,04,19,08,29,6.90
2014,04,19,08,30,6.90
2014,04,19,08,32,6.90
2014,04,19,08,34,6.90
2014,04,19,08,35,7.00
2014,04,19,08,37,7.00
2014,04,19,08,38,7.00
2014,04,19,08,39,7.00
2014,04,19,08,40,7.10
2014,04,19,08,41,7.10
2014,04,19,08,42,7.10
2014,04,19,08,43,7.10
2014,04,19,08,44,7.10
2014,04,19,08,45,7.10
2014,04,19,08,47,7.10
2014,04,19,08,48,7.10
2014,04,19,08,50,7.20
2014,04,19,08,51,7.20
2014,04,19,08,52,7.20
2014,04,19,08,53,7.20
2014,04,19,08,54,7.20
2014,04,19,08,55,7.20
2014,04,19,08,56,7.20
2014,04,19,08,57,7.30
2014,04,19,08,58,7.30
2014,04,19,08,59,7.30
2014,04,19,09,00,7.30
2014,04,19,09,01,7.30
2014,04,19,09,03,7.30
2014,04,19,09,04,7.30
2014,04,19,09,05,7.40
2014,04,19,09,06,7.40
2014,04,19,09,07,7.40
2014,04,19,09,08,7.40
2014,04,19,09,09,7.40
2014,04,19,09,10,7.40
2014,04,19,09,11,7.50
2014,04,19,09,12,7.50
2014,04,19,09,13,7.50
2014,04,19,09,14,7.50
2014,04,19,09,15,7.50
2014,04,19,09,16,7.60
2014,04,19,09,17,7.60
2014,04,19,09,18,7.60
2014,04,19,09,19,7.60
2014,04,19,09,20,7.60
2014,04,19,09,22,7.60
2014,04,19,09,23,7.60
2014,04,19,09,25,7.60
2014,04,19,09,26,7.60
2014,04,19,09,27,7.60
2014,04,19,09,28,7.60
2014,04,19,09,29,7.60
2014,04,19,09,30,7.60
2014,04,19,09,31,7.60
2014,04,19,09,32,7.60
2014,04,19,09,33,7.60
2014,04,19,09,34,7.60
2014,04,19,09,36,7.60
2014,04,19,09,37,7.60
2014,04,19,09,38,7.60
2014,04,19,09,39,7.60
2014,04,19,09,40,7.60
2014,04,19,09,41,7.60
2014,04,19,09,42,7.60
2014,04,19,09,44,7.60
2014,04,19,09,45,7.60
2014,04,19,09,46,7.60
2014,04,19,09,47,7.60
2014,04,19,09,49,7.70
2014,04,19,09,50,7.70
2014,04,19,09,51,7.70
2014,04,19,09,52,7.70
2014,04,19,09,53,7.70
2014,04,19,09,54,7.70
2014,04,19,09,55,7.70
2014,04,19,09,56,7.70
2014,04,19,09,58,7.70
2014,04,19,09,59,7.70
2014,04,19,10,00,7.70
2014,04,19,10,01,7.70
2014,04,19,10,04,7.80
2014,04,19,10,05,7.80
2014,04,19,10,06,7.80
2014,04,19,10,07,7.80
2014,04,19,10,08,7.80
2014,04,19,10,10,7.80
2014,04,19,10,11,7.80
2014,04,19,10,12,7.80
2014,04,19,10,13,7.80
2014,04,19,10,15,7.80
2014,04,19,10,16,7.80
2014,04,19,10,17,7.80
2014,04,19,10,18,7.80
2014,04,19,10,20,7.90
2014,04,19,10,21,7.90
2014,04,19,10,22,7.90
2014,04,19,10,23,7.90
2014,04,19,10,25,8.00
2014,04,19,10,26,8.00
2014,04,19,10,27,8.10
2014,04,19,10,28,8.10
2014,04,19,10,29,8.10
2014,04,19,10,30,8.10
2014,04,19,10,31,8.10
2014,04,19,10,32,8.10
2014,04,19,10,33,8.10
2014,04,19,10,35,8.10
2014,04,19,10,36,8.10
2014,04,19,10,37,8.10
2014,04,19,10,38,8.10
2014,04,19,10,39,8.20
2014,04,19,10,40,8.20
2014,04,19,10,41,8.20
2014,04,19,10,42,8.20
2014,04,19,10,43,8.20
2014,04,19,10,44,8.20
2014,04,19,10,45,8.20
2014,04,19,10,46,8.20
2014,04,19,10,47,8.20
2014,04,19,10,48,8.30
2014,04,19,10,49,8.30
2014,04,19,10,50,8.30
2014,04,19,10,51,8.30
2014,04,19,10,52,8.30
2014,04,19,10,54,8.30
2014,04,19,10,55,8.40
2014,04,19,10,56,8.40
2014,04,19,10,57,8.40
2014,04,19,10,59,8.40
2014,04,19,11,00,8.50
2014,04,19,11,01,8.50
2014,04,19,11,03,8.60
2014,04,19,11,04,8.60
2014,04,19,11,05,8.60
2014,04,19,11,06,8.60
2014,04,19,11,07,8.70
2014,04,19,11,08,8.70
2014,04,19,11,09,8.70
2014,04,19,11,10,8.70
2014,04,19,11,11,8.70
2014,04,19,11,12,8.70
2014,04,19,11,14,8.70
2014,04,19,11,15,8.70
2014,04,19,11,16,8.70
2014,04,19,11,17,8.80
2014,04,19,11,18,8.80
2014,04,19,11,19,8.80
2014,04,19,11,20,8.80
2014,04,19,11,21,8.80
2014,04,19,11,22,8.80
2014,04,19,11,23,8.80
2014,04,19,11,25,8.80
2014,04,19,11,26,8.80
2014,04,19,11,27,8.80
2014,04,19,11,28,8.80
2014,04,19,11,29,8.80
2014,04,19,11,30,8.80
2014,04,19,11,32,8.80
2014,04,19,11,33,8.80
2014,04,19,11,34,8.80
2014,04,19,11,35,8.80
2014,04,19,11,36,8.80
2014,04,19,11,37,8.80
2014,04,19,11,38,8.80
2014,04,19,11,39,8.80
2014,04,19,11,40,8.80
2014,04,19,11,41,8.90
2014,04,19,11,42,8.90
2014,04,19,11,43,8.90
2014,04,19,11,44,8.90
2014,04,19,11,45,8.90
2014,04,19,11,46,8.90
2014,04,19,11,47,8.90
2014,04,19,11,48,8.90
2014,04,19,11,49,9.00
2014,04,19,11,50,9.00
2014,04,19,11,51,9.10
2014,04,19,11,52,9.10
2014,04,19,11,54,9.20
2014,04,19,11,55,9.20
2014,04,19,11,56,9.20
2014,04,19,11,57,9.20
2014,04,19,11,58,9.30
2014,04,19,11,59,9.30
2014,04,19,12,00,9.40
2014,04,19,12,01,9.40
2014,04,19,12,02,9.50
2014,04,19,12,04,9.70
2014,04,19,12,05,9.70
2014,04,19,12,06,9.80
2014,04,19,12,07,9.80
2014,04,19,12,08,9.80
2014,04,19,12,09,9.80
2014,04,19,12,10,9.80
2014,04,19,12,11,9.80
2014,04,19,12,12,9.80
2014,04,19,12,13,9.80
2014,04,19,12,14,9.70
2014,04,19,12,15,9.70
2014,04,19,12,16,9.70
2014,04,19,12,17,9.70
2014,04,19,12,18,9.60
2014,04,19,12,19,9.60
2014,04,19,12,20,9.60
2014,04,19,12,21,9.50
2014,04,19,12,23,9.40
2014,04,19,12,24,9.40
2014,04,19,12,26,9.40
2014,04,19,12,27,9.40
2014,04,19,12,28,9.40
2014,04,19,12,29,9.40
2014,04,19,12,30,9.30
2014,04,19,12,32,9.40
2014,04,19,12,34,9.50
2014,04,19,12,35,9.60
2014,04,19,12,36,9.60
2014,04,19,12,37,9.70
2014,04,19,12,38,9.70
2014,04,19,12,39,9.80
2014,04,19,12,40,9.80
2014,04,19,12,41,9.80
2014,04,19,12,43,9.90
2014,04,19,12,44,9.90
2014,04,19,12,45,10.00
2014,04,19,12,46,10.00
2014,04,19,12,47,10.00
2014,04,19,12,48,10.10
2014,04,19,12,49,10.10
2014,04,19,12,50,10.00
2014,04,19,12,51,10.00
2014,04,19,12,52,10.00
2014,04,19,12,54,9.90
2014,04,19,12,55,9.90
2014,04,19,12,56,9.90
2014,04,19,12,57,9.80
2014,04,19,12,58,9.80
2014,04,19,12,59,9.80
2014,04,19,13,00,9.80
2014,04,19,13,01,9.80
2014,04,19,13,02,9.70
2014,04,19,13,04,9.60
2014,04,19,13,05,9.60
2014,04,19,13,06,9.60
2014,04,19,13,07,9.60
2014,04,19,13,08,9.60
2014,04,19,13,09,9.60
2014,04,19,13,10,9.60
2014,04,19,13,12,9.60
2014,04,19,13,13,9.60
2014,04,19,13,15,9.60
2014,04,19,13,16,9.60
2014,04,19,13,17,9.60
2014,04,19,13,18,9.60
2014,04,19,13,20,9.70
2014,04,19,13,21,9.70
2014,04,19,13,22,9.60
2014,04,19,13,23,9.70
2014,04,19,13,24,9.70
2014,04,19,13,25,9.70
2014,04,19,13,26,9.70
2014,04,19,13,27,9.70
2014,04,19,13,28,9.70
2014,04,19,13,29,9.70
2014,04,19,13,31,9.70
2014,04,19,13,32,9.70
2014,04,19,13,34,9.70
2014,04,19,13,35,9.80
2014,04,19,13,36,9.80
2014,04,19,13,37,9.80
2014,04,19,13,39,9.90
2014,04,19,13,41,9.90
2014,04,19,13,42,9.90
2014,04,19,13,44,10.10
2014,04,19,13,45,10.10
2014,04,19,13,47,10.10
2014,04,19,13,48,10.20
2014,04,19,13,49,10.20
2014,04,19,13,50,10.20
2014,04,19,13,51,10.20
2014,04,19,13,52,10.20
2014,04,19,13,54,10.20
2014,04,19,13,55,10.20
2014,04,19,13,56,10.20
2014,04,19,13,57,10.20
2014,04,19,13,59,10.20
2014,04,19,14,01,10.20
2014,04,19,14,02,10.20
2014,04,19,14,03,10.20
2014,04,19,14,04,10.20
2014,04,19,14,05,10.20
2014,04,19,14,06,10.20
2014,04,19,14,07,10.10
2014,04,19,14,08,10.10
2014,04,19,14,10,10.10
2014,04,19,14,11,10.10
2014,04,19,14,12,10.10
2014,04,19,14,13,10.10
2014,04,19,14,14,10.10
2014,04,19,14,15,10.10
2014,04,19,14,16,10.10
2014,04,19,14,18,10.10
2014,04,19,14,19,10.00
2014,04,19,14,20,9.90
2014,04,19,14,21,9.90
2014,04,19,14,22,9.90
2014,04,19,14,23,9.80
2014,04,19,14,24,9.80
2014,04,19,14,26,9.80
2014,04,19,14,28,9.70
2014,04,19,14,29,9.70
2014,04,19,14,30,9.70
2014,04,19,14,31,9.70
2014,04,19,14,32,9.70
2014,04,19,14,33,9.70
2014,04,19,14,35,9.60
2014,04,19,14,36,9.60
2014,04,19,14,37,9.60
2014,04,19,14,38,9.60
2014,04,19,14,39,9.60
2014,04,19,14,41,9.70
2014,04,19,14,42,9.70
2014,04,19,14,43,9.70
2014,04,19,14,45,9.70
2014,04,19,14,46,9.70
2014,04,19,14,47,9.60
2014,04,19,14,48,9.60
2014,04,19,14,49,9.60
2014,04,19,14,50,9.60
2014,04,19,14,51,9.50
2014,04,19,14,52,9.50
2014,04,19,14,53,9.50
2014,04,19,14,54,9.40
2014,04,19,14,55,9.40
2014,04,19,14,56,9.40
2014,04,19,14,58,9.40
2014,04,19,15,00,9.40
2014,04,19,15,02,9.30
2014,04,19,15,03,9.30
2014,04,19,15,04,9.30
2014,04,19,15,05,9.30
2014,04,19,15,06,9.30
2014,04,19,15,07,9.30
2014,04,19,15,08,9.40
2014,04,19,15,10,9.40
2014,04,19,15,11,9.40
2014,04,19,15,12,9.40
2014,04,19,15,14,9.40
2014,04,19,15,16,9.40
2014,04,19,15,18,9.40
2014,04,19,15,19,9.40
2014,04,19,15,20,9.40
2014,04,19,15,21,9.40
2014,04,19,15,23,9.50
2014,04,19,15,24,9.60
2014,04,19,15,25,9.60
2014,04,19,15,26,9.60
2014,04,19,15,27,9.60
2014,04,19,15,29,9.70
2014,04,19,15,30,9.70
2014,04,19,15,31,9.70
2014,04,19,15,32,9.70
2014,04,19,15,33,9.80
2014,04,19,15,35,9.80
2014,04,19,15,36,9.80
2014,04,19,15,37,9.80
2014,04,19,15,38,9.90
2014,04,19,15,39,9.90
2014,04,19,15,40,9.90
2014,04,19,15,42,10.00
2014,04,19,15,43,10.00
2014,04,19,15,44,10.00
2014,04,19,15,45,10.00
2014,04,19,15,46,10.00
2014,04,19,15,48,10.10
2014,04,19,15,50,10.00
2014,04,19,15,51,10.00
2014,04,19,15,52,10.00
2014,04,19,15,53,10.00
2014,04,19,15,54,9.90
2014,04,19,15,56,9.90
2014,04,19,15,57,9.90
2014,04,19,15,59,10.00
2014,04,19,16,01,10.00
2014,04,19,16,02,10.00
2014,04,19,16,04,10.10
2014,04,19,16,05,10.10
2014,04,19,16,06,10.10
2014,04,19,16,07,10.10
2014,04,19,16,08,10.10
2014,04,19,16,09,10.10
2014,04,19,16,10,10.10
2014,04,19,16,11,10.10
2014,04,19,16,12,10.10
2014,04,19,16,14,10.10
2014,04,19,16,15,10.10
2014,04,19,16,16,10.10
2014,04,19,16,17,10.10
2014,04,19,16,19,10.10
2014,04,19,16,20,10.10
2014,04,19,16,22,10.10
2014,04,19,16,23,10.10
2014,04,19,16,25,10.00
2014,04,19,16,26,10.00
2014,04,19,16,27,9.90
2014,04,19,16,29,9.90
2014,04,19,16,30,9.90
2014,04,19,16,31,9.90
2014,04,19,16,32,9.90
2014,04,19,16,33,9.80
2014,04,19,16,35,9.80
2014,04,19,16,36,9.80
2014,04,19,16,37,9.80
2014,04,19,16,38,9.80
2014,04,19,16,40,9.80
2014,04,19,16,41,9.80
2014,04,19,16,42,9.80
2014,04,19,16,44,9.80
2014,04,19,16,45,9.80
2014,04,19,16,46,9.80
2014,04,19,16,47,9.80
2014,04,19,16,49,9.80
2014,04,19,16,50,9.80
2014,04,19,16,51,9.80
2014,04,19,16,52,9.80
2014,04,19,16,54,9.70
2014,04,19,16,55,9.70
2014,04,19,16,56,9.60
2014,04,19,16,58,9.60
2014,04,19,16,59,9.60
2014,04,19,17,01,9.60
2014,04,19,17,03,9.60
2014,04,19,17,04,9.60
2014,04,19,17,05,9.50
2014,04,19,17,06,9.50
2014,04,19,17,07,9.50
2014,04,19,17,08,9.60
2014,04,19,17,09,9.60
2014,04,19,17,10,9.60
2014,04,19,17,11,9.60
2014,04,19,17,12,9.60
2014,04,19,17,14,9.60
2014,04,19,17,16,9.60
2014,04,19,17,17,9.60
2014,04,19,17,18,9.60
2014,04,19,17,20,9.60
2014,04,19,17,21,9.60
2014,04,19,17,23,9.60
2014,04,19,17,24,9.60
2014,04,19,17,25,9.60
2014,04,19,17,26,9.60
2014,04,19,17,27,9.60
2014,04,19,17,29,9.60
2014,04,19,17,31,9.60
2014,04,19,17,32,9.60
2014,04,19,17,33,9.60
2014,04,19,17,34,9.60
2014,04,19,17,35,9.60
2014,04,19,17,36,9.60
2014,04,19,17,38,9.60
2014,04,19,17,39,9.60
2014,04,19,17,40,9.60
2014,04,19,17,41,9.50
2014,04,19,17,42,9.50
2014,04,19,17,43,9.40
2014,04,19,17,44,9.40
2014,04,19,17,45,9.40
2014,04,19,17,47,9.40
2014,04,19,17,48,9.40
2014,04,19,17,49,9.40
2014,04,19,17,50,9.30
2014,04,19,17,51,9.30
2014,04,19,17,53,9.30
2014,04,19,17,55,9.30
2014,04,19,17,56,9.30
2014,04,19,17,58,9.30
2014,04,19,18,00,9.20
2014,04,19,18,01,9.20
2014,04,19,18,02,9.20
2014,04,19,18,04,9.20
2014,04,19,18,05,9.20
2014,04,19,18,06,9.20
2014,04,19,18,07,9.20
2014,04,19,18,08,9.20
2014,04,19,18,09,9.20
2014,04,19,18,11,9.20
2014,04,19,18,13,9.20
2014,04,19,18,14,9.20
2014,04,19,18,15,9.20
2014,04,19,18,16,9.20
2014,04,19,18,18,9.20
2014,04,19,18,19,9.20
2014,04,19,18,20,9.30
2014,04,19,18,21,9.30
2014,04,19,18,22,9.30
2014,04,19,18,23,9.30
2014,04,19,18,25,9.30
2014,04,19,18,26,9.30
2014,04,19,18,27,9.30
2014,04,19,18,28,9.30
2014,04,19,18,29,9.30
2014,04,19,18,30,9.30
2014,04,19,18,32,9.30
2014,04,19,18,33,9.30
2014,04,19,18,34,9.30
2014,04,19,18,35,9.30
2014,04,19,18,37,9.30
2014,04,19,18,38,9.30
2014,04,19,18,39,9.30
2014,04,19,18,41,9.30
2014,04,19,18,42,9.30
2014,04,19,18,44,9.30
2014,04,19,18,45,9.30
2014,04,19,18,46,9.30
2014,04,19,18,47,9.30
2014,04,19,18,48,9.30
2014,04,19,18,49,9.30
2014,04,19,18,51,9.30
2014,04,19,18,52,9.30
2014,04,19,18,53,9.20
2014,04,19,18,54,9.20
2014,04,19,18,56,9.20
2014,04,19,18,57,9.20
2014,04,19,18,58,9.20
2014,04,19,18,59,9.20
2014,04,19,19,00,9.20
2014,04,19,19,01,9.20
2014,04,19,19,03,9.20
2014,04,19,19,04,9.20
2014,04,19,19,05,9.20
2014,04,19,19,06,9.20
2014,04,19,19,07,9.20
2014,04,19,19,08,9.20
2014,04,19,19,10,9.20
2014,04,19,19,11,9.20
2014,04,19,19,12,9.20
2014,04,19,19,13,9.20
2014,04,19,19,14,9.20
2014,04,19,19,15,9.20
2014,04,19,19,16,9.20
2014,04,19,19,17,9.20
2014,04,19,19,18,9.20
2014,04,19,19,19,9.20
2014,04,19,19,20,9.10
2014,04,19,19,21,9.10
2014,04,19,19,23,9.20
2014,04,19,19,24,9.20
2014,04,19,19,26,9.20
2014,04,19,19,27,9.20
2014,04,19,19,28,9.20
2014,04,19,19,30,9.10
2014,04,19,19,31,9.10
2014,04,19,19,32,9.10
2014,04,19,19,33,9.10
2014,04,19,19,34,9.00
2014,04,19,19,35,9.00
2014,04,19,19,36,8.90
2014,04,19,19,37,8.90
2014,04,19,19,38,8.90
2014,04,19,19,39,8.90
2014,04,19,19,40,8.90
2014,04,19,19,41,8.80
2014,04,19,19,42,8.80
2014,04,19,19,43,8.80
2014,04,19,19,45,8.80
2014,04,19,19,46,8.80
2014,04,19,19,47,8.80
2014,04,19,19,48,8.80
2014,04,19,19,49,8.80
2014,04,19,19,51,8.80
2014,04,19,19,52,8.70
2014,04,19,19,54,8.70
2014,04,19,19,56,8.70
2014,04,19,19,57,8.70
2014,04,19,19,58,8.70
2014,04,19,19,59,8.70
2014,04,19,20,00,8.60
2014,04,19,20,02,8.60
2014,04,19,20,04,8.60
2014,04,19,20,05,8.60
2014,04,19,20,06,8.60
2014,04,19,20,07,8.60
2014,04,19,20,08,8.60
2014,04,19,20,09,8.60
2014,04,19,20,10,8.60
2014,04,19,20,11,8.60
2014,04,19,20,12,8.60
2014,04,19,20,13,8.60
2014,04,19,20,15,8.60
2014,04,19,20,16,8.60
2014,04,19,20,18,8.60
2014,04,19,20,19,8.60
2014,04,19,20,21,8.60
2014,04,19,20,22,8.60
2014,04,19,20,23,8.60
2014,04,19,20,24,8.60
2014,04,19,20,25,8.60
2014,04,19,20,26,8.60
2014,04,19,20,27,8.60
2014,04,19,20,28,8.60
2014,04,19,20,30,8.60
2014,04,19,20,31,8.60
2014,04,19,20,32,8.60
2014,04,19,20,33,8.60
2014,04,19,20,34,8.60
2014,04,19,20,35,8.60
2014,04,19,20,36,8.60
2014,04,19,20,38,8.60
2014,04,19,20,39,8.60
2014,04,19,20,41,8.50
2014,04,19,20,42,8.50
2014,04,19,20,43,8.60
2014,04,19,20,44,8.60
2014,04,19,20,45,8.60
2014,04,19,20,47,8.60
2014,04,19,20,48,8.60
2014,04,19,20,49,8.60
2014,04,19,20,50,8.60
2014,04,19,20,52,8.60
2014,04,19,20,53,8.60
2014,04,19,20,54,8.60
2014,04,19,20,56,8.60
2014,04,19,20,57,8.60
2014,04,19,20,59,8.60
2014,04,19,21,00,8.60
2014,04,19,21,01,8.60
2014,04,19,21,02,8.60
2014,04,19,21,03,8.70
2014,04,19,21,04,8.70
2014,04,19,21,05,8.70
2014,04,19,21,06,8.70
2014,04,19,21,07,8.70
2014,04,19,21,08,8.70
2014,04,19,21,09,8.70
2014,04,19,21,10,8.70
2014,04,19,21,11,8.70
2014,04,19,21,12,8.70
2014,04,19,21,13,8.70
2014,04,19,21,15,8.70
2014,04,19,21,16,8.70
2014,04,19,21,18,8.70
2014,04,19,21,19,8.70
2014,04,19,21,20,8.70
2014,04,19,21,22,8.70
2014,04,19,21,23,8.70
2014,04,19,21,24,8.70
2014,04,19,21,26,8.60
2014,04,19,21,27,8.60
2014,04,19,21,28,8.60
2014,04,19,21,29,8.60
2014,04,19,21,30,8.60
2014,04,19,21,32,8.60
2014,04,19,21,33,8.60
2014,04,19,21,34,8.60
2014,04,19,21,35,8.60
2014,04,19,21,36,8.60
2014,04,19,21,37,8.60
2014,04,19,21,38,8.60
2014,04,19,21,40,8.50